Dewpoint
37 37 36 34 34 33 33 33 34 34 34 33 33 32 32 32 31 31 31 31 31 31 31 31 30 30 29 29 29 28 28 28 28 28 29 29 29 29 29 30 30 30 30 30 30 30 29 28 30 31 32 32 32 32 32 32 33 33 33 33 32 32 33 34 34 35 35 36 36
35 35 35 34 33 32 32 32 32 32 33 33 32 32 32 31 31 30 30 30 30 31 31 30 30 29 29 29 28 28 28 28 28 28 28 28 28 28 29 29 29 29 29 29 29 28 28 28 29 30 30 30 30 29 29 31 32 31 31 31 31 32 32 32 32 32 33 33 34
32 32 33 33 32 31 30 30 31 31 32 32 32 32 31 31 30 30 30 30 30 30 30 29 29 28 28 28 28 28 28 28 28 28 28 28 28 28 29 29 29 29 29 29 28 28 28 27 28 28 28 28 28 27 27 28 28 29 29 29 30 31 31 30 31 31 32 31 32
31 31 31 32 32 31 30 30 30 30 30 31 31 31 30 30 30 30 30 29 29 29 29 29 28 28 28 28 28 28 28 28 28 28 28 28 28 28 28 29 29 29 28 28 28 28 27 27 27 27 26 26 26 25 25 26 27 28 28 29 30 30 30 29 30 30 31 31 32
29 29 30 31 31 31 31 30 30 29 30 30 30 30 29 29 29 29 29 28 28 28 29 29 28 28 28 28 27 27 27 27 28 28 27 27 28 28 28 28 28 28 28 28 28 28 27 26 25 25 25 24 24 24 24 25 26 27 28 29 29 29 29 29 30 31 31 31 31
28 28 29 30 31 30 30 30 29 29 29 29 29 29 29 29 29 29 28 28 28 29 29 28 28 28 27 27 27 26 26 26 27 27 27 27 27 28 28 28 27 27 27 27 26 26 26 24 23 23 23 23 23 23 23 24 25 27 28 28 28 29 30 30 31 31 31 31 30
28 28 28 29 30 30 30 30 29 29 28 28 28 29 29 29 29 29 29 28 28 28 28 27 27 27 27 26 26 25 26 26 26 26 26 27 27 27 27 27 26 26 26 25 24 24 23 23 23 22 22 22 22 23 23 25 26 27 27 28 28 29 31 32 32 32 31 30 30
28 28 28 28 29 29 30 30 29 28 28 28 28 28 29 29 29 29 28 28 28 27 27 27 26 26 26 25 25 24 24 25 25 26 26 26 26 26 25 25 24 24 24 23 23 23 22 23 22 21 21 22 22 23 23 25 26 27 27 28 29 30 31 32 32 32 30 29 30
27 28 28 28 29 29 29 29 29 28 28 28 28 28 28 29 28 28 28 27 27 27 27 26 25 25 25 25 24 24 24 24 24 25 25 25 25 24 24 23 23 23 23 22 22 22 22 21 21 20 21 21 22 23 24 26 27 27 28 28 29 30 30 31 31 30 29 29 29
26 27 28 28 28 29 29 29 29 28 28 28 28 28 28 28 28 28 28 27 27 26 26 25 24 24 24 23 23 23 23 24 24 24 24 24 24 23 23 23 22 22 21 21 21 21 21 20 20 20 21 21 22 23 24 26 27 27 28 28 29 29 29 29 28 28 28 28 28
26 26 27 27 28 28 28 28 28 28 27 27 27 27 27 27 27 27 27 27 26 25 24 24 24 23 23 23 23 23 23 23 23 23 23 23 23 23 22 22 21 21 20 20 21 21 21 20 20 20 21 21 22 23 24 25 26 27 28 28 29 29 28 28 27 27 27 27 28
26 26 26 27 27 27 28 27 27 26 26 26 26 25 25 25 26 26 27 26 25 24 24 24 24 23 23 23 22 23 23 23 23 23 23 22 21 21 21 21 20 20 20 20 21 21 21 20 21 20 20 20 22 23 24 25 26 27 27 28 28 28 27 27 26 27 27 27 28
25 25 26 26 26 26 26 26 25 25 25 25 25 24 24 24 25 25 25 25 24 23 23 23 23 23 23 22 22 22 22 22 22 22 22 21 20 19 19 19 19 19 19 20 21 21 21 21 21 20 20 20 22 23 24 25 25 26 26 26 26 26 25 26 26 26 27 27 28
24 25 25 25 25 25 25 25 24 24 24 24 23 23 23 23 24 24 24 24 23 23 23 23 23 22 22 22 22 22 22 22 22 21 20 19 19 19 19 19 19 19 19 20 21 20 20 20 20 20 20 20 21 23 24 25 25 25 25 25 24 24 24 24 25 26 27 27 27
23 24 24 24 24 24 24 24 23 23 23 23 23 23 23 23 23 23 23 23 23 23 22 22 21 21 22 22 21 21 21 21 21 20 19 18 18 18 18 18 19 19 19 20 20 20 19 19 19 20 21 21 22 23 24 25 25 25 25 25 24 23 23 23 24 25 26 26 26
23 23 23 23 23 23 23 23 23 22 22 22 23 23 23 22 22 23 23 23 22 22 21 21 21 21 21 21 21 21 21 20 19 19 18 17 17 17 17 18 18 19 19 19 18 19 19 19 20 20 21 22 23 23 23 24 24 25 25 24 24 23 23 23 23 23 24 25 24
22 22 23 23 23 23 23 23 23 22 22 22 23 22 22 22 22 22 22 22 21 21 21 21 20 20 20 21 21 21 20 19 19 18 17 16 16 16 17 17 18 19 19 19 17 17 17 18 19 21 22 23 23 24 24 24 24 24 24 24 24 23 23 23 23 23 23 23 23
21 21 22 22 22 22 23 23 23 22 22 22 22 22 22 22 21 21 22 22 21 21 21 20 20 20 20 20 20 20 20 19 18 17 17 16 16 16 16 17 18 19 19 19 17 16 16 17 19 20 22 23 24 24 24 24 24 24 24 24 24 24 23 23 23 23 23 23 23
21 21 21 21 22 22 22 23 22 22 22 22 22 22 21 21 21 21 21 21 21 21 20 20 20 20 20 20 20 20 20 19 18 17 17 17 17 16 16 17 18 18 19 19 17 17 16 17 19 20 22 23 24 24 25 24 24 24 24 23 24 24 24 24 24 24 23 23 23
21 21 21 21 21 22 22 22 22 22 22 21 21 21 21 21 21 20 20 20 20 21 20 20 19 19 19 20 20 20 20 20 19 18 17 18 17 17 17 17 17 18 18 18 18 17 17 18 19 21 22 23 23 24 24 24 24 24 24 24 24 24 25 25 25 25 24 24 23
21 21 21 21 21 22 22 22 22 22 21 21 21 21 20 20 20 20 20 20 20 20 20 20 19 19 19 20 19 19 19 19 19 18 18 18 17 17 17 17 17 17 18 18 18 18 18 19 21 22 23 23 23 24 24 24 24 24 25 25 24 25 25 26 26 25 25 24 23
21 21 21 21 21 22 22 22 22 21 21 20 20 20 20 19 19 19 19 20 20 20 19 19 19 19 19 20 20 19 19 19 19 19 18 18 17 17 17 18 17 17 17 18 18 19 20 22 23 24 24 24 24 24 25 25 25 25 25 25 25 25 26 26 26 25 24 23 23
21 21 21 21 21 21 22 21 21 20 20 20 19 19 19 19 19 19 19 19 19 19 19 19 19 20 20 20 20 19 19 18 18 18 18 17 17 17 17 17 17 17 17 18 19 21 23 24 25 25 25 24 24 24 25 25 25 25 25 25 25 25 25 25 25 24 23 23 22
21 21 21 21 20 20 20 20 20 20 19 19 19 19 19 19 19 18 18 18 18 18 18 18 19 19 20 20 19 19 18 17 16 16 16 17 16 16 16 16 16 16 17 20 22 24 25 26 25 25 25 25 25 25 25 25 25 25 25 25 25 25 25 25 25 24 23 22 22
21 21 21 20 20 20 20 20 19 19 19 19 19 19 19 18 18 18 18 18 18 18 18 18 18 19 19 19 19 18 18 17 16 16 16 16 16 16 16 16 16 17 19 22 24 27 28 28 28 26 25 25 25 25 25 25 25 25 25 25 25 25 25 24 24 23 23 22 22
21 20 20 20 20 20 20 19 19 19 19 19 19 19 19 18 18 18 18 18 18 18 18 18 18 19 19 19 18 17 17 17 17 17 17 16 16 16 16 16 16 19 21 23 25 28 29 30 30 29 28 27 26 26 25 25 25 26 26 26 26 25 24 23 23 23 22 22 22
20 20 20 20 20 20 19 19 19 19 19 19 19 19 18 18 18 18 18 18 18 18 18 18 19 19 19 18 17 17 17 17 18 17 17 17 17 16 16 16 17 19 21 24 27 28 29 30 31 31 30 28 27 27 26 26 26 26 26 26 25 25 24 23 23 22 22 22 22
20 20 20 20 20 20 19 19 19 19 19 19 19 19 18 18 18 18 18 18 18 18 18 18 19 19 18 18 17 17 17 17 18 18 18 18 17 17 17 16 16 18 21 25 27 28 29 30 30 31 31 29 28 28 27 26 26 25 25 24 24 24 23 23 23 22 22 22 22
20 20 20 20 20 20 19 19 19 19 19 19 19 19 18 18 18 18 18 17 17 18 18 18 19 19 18 17 18 18 18 18 18 18 18 18 17 17 17 16 17 19 23 26 28 28 29 29 30 31 31 31 29 27 26 25 25 24 23 23 23 23 23 23 23 23 23 22 22
20 20 20 20 20 20 19 19 19 19 19 19 19 19 18 18 18 18 18 17 18 18 19 19 19 19 18 18 18 17 17 17 18 18 18 17 17 17 17 17 17 19 23 26 27 28 28 29 30 31 31 31 30 28 26 25 24 24 23 23 23 23 23 23 23 23 23 23 22
20 20 20 20 20 20 19 19 19 19 19 19 19 18 18 18 18 18 18 18 18 19 20 20 19 19 18 18 18 17 17 18 18 18 17 17 17 17 17 17 17 19 22 26 27 28 28 29 30 30 31 31 29 27 26 25 24 24 23 23 23 23 23 23 23 23 23 22 22
20 20 20 20 20 20 19 19 19 19 19 19 19 18 18 18 18 18 18 19 19 19 19 19 19 18 18 17 17 17 17 17 17 17 17 18 17 17 17 17 17 19 22 25 27 28 29 29 30 30 30 31 29 27 25 24 23 23 23 23 23 23 23 23 23 22 22 22 22
20 20 20 20 20 20 19 19 19 19 19 19 18 18 18 18 19 19 18 19 19 19 19 19 18 18 17 17 17 17 17 17 17 17 18 18 18 17 17 17 16 19 22 26 27 28 28 29 29 30 30 31 29 27 25 24 23 23 23 23 23 23 23 23 23 23 23 22 23
20 20 20 19 19 19 19 19 19 19 19 18 18 18 18 18 19 18 18 19 19 19 19 19 19 18 18 17 17 17 17 17 17 17 17 17 17 17 17 16 16 19 23 26 27 28 28 29 29 29 30 30 28 26 24 23 23 22 22 22 22 22 22 23 23 23 23 23 22
20 19 19 19 19 19 19 19 19 19 18 18 18 18 18 19 19 19 19 19 20 20 19 19 19 18 18 18 17 17 17 17 16 16 16 16 17 17 17 16 16 20 24 26 27 28 28 28 29 29 29 29 27 25 23 23 22 21 21 21 21 21 21 22 23 23 23 23 23
19 19 19 19 19 19 19 19 19 19 18 18 18 18 19 19 19 19 19 20 20 19 19 19 18 18 18 18 17 17 17 16 16 16 16 16 16 16 16 16 16 19 23 26 27 27 28 28 28 29 29 28 25 23 23 22 21 21 20 20 20 20 21 22 23 23 23 23 23
19 19 19 19 19 19 19 19 19 18 18 18 18 19 19 19 19 19 19 20 19 19 19 18 18 18 18 18 17 17 17 17 17 16 16 17 16 15 15 16 16 19 22 25 26 27 28 28 28 28 28 25 23 23 22 22 21 21 20 20 20 20 21 22 22 22 22 23 25
19 19 19 19 19 19 19 19 19 18 18 18 18 19 19 19 19 19 19 20 19 19 19 18 18 18 18 18 18 18 17 17 17 17 16 16 15 15 16 16 17 19 21 24 26 27 27 28 28 28 28 24 23 23 22 21 21 20 20 20 20 20 20 21 21 21 23 26 29
19 19 19 19 19 19 19 19 18 18 18 18 19 18 18 19 19 19 19 20 19 19 19 18 18 18 18 19 18 18 17 17 17 17 16 15 15 17 18 17 17 18 20 23 25 26 27 28 28 28 28 25 23 23 22 22 21 21 20 20 19 19 19 20 20 22 26 30 32
19 19 19 19 19 19 19 18 18 18 18 19 18 18 18 19 19 19 19 19 19 19 18 18 18 18 19 19 19 18 17 16 16 16 16 16 16 19 19 17 17 17 19 22 24 26 27 28 28 28 28 25 23 23 22 22 21 21 20 20 19 19 19 19 21 26 31 33 32
19 19 19 19 19 19 19 18 18 19 19 19 19 19 19 19 19 19 19 19 19 19 18 18 18 18 19 19 19 18 17 16 16 16 16 17 17 18 19 17 16 17 18 20 23 25 27 28 28 28 28 25 23 23 22 22 21 20 20 19 19 19 19 19 24 29 32 31 27